Location: Unspecified
(0.0000°N, 0.0000°E)
Time: 14:26:33
(UTC+00:00)

OTV 5 (USA 277) - Visible Passes

Search period start: 15 October 2019 00:00
Search period end: 25 October 2019 00:00
Orbit: 310 x 324 km, 54.5° (Epoch: 08 October)

Date Brightness Start Highest point End Pass type
(mag) Time Alt. Az. Time Alt. Az. Time Alt. Az.
21 Oct ? 18:21:13 10° S 18:23:26 22° ESE 18:24:49 15° E visible
22 Oct ? 18:35:15 10° SW 18:37:54 56° WNW 18:40:01 15° NNE visible
23 Oct ? 18:51:24 10° WNW 18:52:23 11° WNW 18:53:23 10° NW visible
